Year,Month,Day,Hour,Minute,Value (Times are PST for windspeed in km/hr)
2016,10,04,00,00,14.90
2016,10,04,00,01,14.80
2016,10,04,00,02,14.60
2016,10,04,00,03,10.10
2016,10,04,00,04,13.50
2016,10,04,00,05,10.50
2016,10,04,00,06,9.50
2016,10,04,00,07,10.50
2016,10,04,00,08,12.00
2016,10,04,00,09,9.40
2016,10,04,00,10,13.80
2016,10,04,00,11,11.30
2016,10,04,00,12,6.40
2016,10,04,00,13,6.70
2016,10,04,00,14,10.20
2016,10,04,00,15,8.10
2016,10,04,00,16,8.70
2016,10,04,00,17,10.10
2016,10,04,00,18,9.70
2016,10,04,00,19,12.00
2016,10,04,00,20,14.00
2016,10,04,00,21,9.00
2016,10,04,00,22,10.50
2016,10,04,00,23,14.60
2016,10,04,00,24,13.60
2016,10,04,00,25,7.70
2016,10,04,00,26,6.90
2016,10,04,00,27,13.00
2016,10,04,00,28,9.40
2016,10,04,00,29,10.80
2016,10,04,00,30,9.40
2016,10,04,00,31,7.60
2016,10,04,00,32,10.20
2016,10,04,00,33,10.10
2016,10,04,00,34,15.10
2016,10,04,00,35,11.30
2016,10,04,00,36,11.20
2016,10,04,00,37,7.00
2016,10,04,00,38,8.60
2016,10,04,00,39,9.50
2016,10,04,00,40,9.20
2016,10,04,00,41,6.80
2016,10,04,00,42,7.40
2016,10,04,00,43,4.80
2016,10,04,00,44,7.40
2016,10,04,00,45,6.80
2016,10,04,00,46,11.30
2016,10,04,00,47,9.10
2016,10,04,00,48,7.10
2016,10,04,00,49,4.80
2016,10,04,00,50,6.40
2016,10,04,00,51,9.00
2016,10,04,00,52,7.90
2016,10,04,00,53,11.30
2016,10,04,00,54,8.10
2016,10,04,00,55,10.00
2016,10,04,00,56,10.40
2016,10,04,00,57,10.00
2016,10,04,00,58,10.50
2016,10,04,00,59,10.00
2016,10,04,01,00,10.30
2016,10,04,01,01,6.60
2016,10,04,01,02,8.30
2016,10,04,01,03,13.10
2016,10,04,01,04,8.90
2016,10,04,01,05,8.90
2016,10,04,01,06,10.00
2016,10,04,01,07,10.20
2016,10,04,01,08,9.30
2016,10,04,01,09,10.30
2016,10,04,01,10,9.00
2016,10,04,01,11,6.20
2016,10,04,01,12,6.60
2016,10,04,01,13,11.30
2016,10,04,01,14,8.80
2016,10,04,01,15,5.10
2016,10,04,01,16,10.60
2016,10,04,01,17,6.90
2016,10,04,01,18,6.20
2016,10,04,01,19,13.50
2016,10,04,01,20,9.30
2016,10,04,01,21,9.70
2016,10,04,01,22,9.40
2016,10,04,01,23,6.90
2016,10,04,01,24,9.60
2016,10,04,01,25,8.10
2016,10,04,01,26,8.30
2016,10,04,01,27,7.80
2016,10,04,01,28,6.00
2016,10,04,01,29,6.30
2016,10,04,01,30,7.40
2016,10,04,01,31,8.50
2016,10,04,01,32,10.00
2016,10,04,01,33,8.50
2016,10,04,01,34,6.60
2016,10,04,01,35,5.90
2016,10,04,01,36,5.00
2016,10,04,01,37,9.20
2016,10,04,01,38,6.70
2016,10,04,01,39,9.00
2016,10,04,01,40,8.70
2016,10,04,01,41,5.40
2016,10,04,01,42,9.40
2016,10,04,01,43,10.70
2016,10,04,01,44,6.50
2016,10,04,01,45,3.80
2016,10,04,01,46,4.90
2016,10,04,01,47,6.50
2016,10,04,01,48,5.60
2016,10,04,01,49,5.50
2016,10,04,01,50,9.10
2016,10,04,01,51,5.80
2016,10,04,01,52,5.00
2016,10,04,01,53,9.20
2016,10,04,01,54,5.70
2016,10,04,01,55,5.10
2016,10,04,01,56,2.30
2016,10,04,01,57,9.40
2016,10,04,01,58,8.10
2016,10,04,01,59,8.60
2016,10,04,02,00,6.50
2016,10,04,02,01,8.20
2016,10,04,02,02,8.60
2016,10,04,02,03,9.80
2016,10,04,02,04,10.10
2016,10,04,02,05,11.90
2016,10,04,02,06,8.40
2016,10,04,02,07,5.30
2016,10,04,02,08,8.60
2016,10,04,02,09,10.90
2016,10,04,02,10,7.30
2016,10,04,02,11,4.60
2016,10,04,02,12,9.40
2016,10,04,02,13,7.70
2016,10,04,02,14,9.70
2016,10,04,02,15,6.20
2016,10,04,02,16,8.80
2016,10,04,02,17,10.90
2016,10,04,02,18,10.00
2016,10,04,02,19,9.90
2016,10,04,02,20,8.00
2016,10,04,02,21,7.00
2016,10,04,02,22,8.10
2016,10,04,02,23,6.00
2016,10,04,02,24,8.60
2016,10,04,02,25,8.60
2016,10,04,02,26,10.00
2016,10,04,02,27,5.50
2016,10,04,02,28,9.00
2016,10,04,02,29,5.80
2016,10,04,02,30,7.40
2016,10,04,02,31,8.70
2016,10,04,02,32,6.80
2016,10,04,02,33,8.10
2016,10,04,02,34,8.90
2016,10,04,02,35,8.90
2016,10,04,02,36,7.40
2016,10,04,02,37,5.70
2016,10,04,02,38,7.50
2016,10,04,02,39,8.40
2016,10,04,02,40,5.40
2016,10,04,02,41,9.60
2016,10,04,02,42,6.40
2016,10,04,02,43,10.20
2016,10,04,02,44,7.80
2016,10,04,02,45,9.00
2016,10,04,02,46,8.80
2016,10,04,02,47,13.50
2016,10,04,02,48,7.20
2016,10,04,02,49,8.50
2016,10,04,02,50,9.10
2016,10,04,02,51,10.30
2016,10,04,02,52,9.70
2016,10,04,02,53,8.60
2016,10,04,02,54,10.00
2016,10,04,02,55,8.00
2016,10,04,02,56,7.20
2016,10,04,02,57,7.10
2016,10,04,02,58,6.30
2016,10,04,02,59,8.80
2016,10,04,03,00,10.10
2016,10,04,03,01,9.60
2016,10,04,03,02,8.00
2016,10,04,03,03,7.20
2016,10,04,03,04,8.90
2016,10,04,03,05,7.70
2016,10,04,03,06,10.60
2016,10,04,03,07,9.50
2016,10,04,03,08,8.30
2016,10,04,03,09,7.40
2016,10,04,03,10,8.20
2016,10,04,03,11,11.10
2016,10,04,03,12,12.00
2016,10,04,03,13,8.40
2016,10,04,03,14,10.20
2016,10,04,03,15,5.00
2016,10,04,03,16,5.60
2016,10,04,03,17,6.20
2016,10,04,03,18,9.40
2016,10,04,03,19,9.70
2016,10,04,03,20,7.80
2016,10,04,03,21,11.30
2016,10,04,03,22,7.20
2016,10,04,03,23,7.70
2016,10,04,03,24,10.20
2016,10,04,03,25,8.90
2016,10,04,03,26,7.10
2016,10,04,03,27,7.60
2016,10,04,03,28,9.30
2016,10,04,03,29,7.40
2016,10,04,03,30,9.70
2016,10,04,03,31,10.70
2016,10,04,03,32,8.10
2016,10,04,03,33,7.80
2016,10,04,03,34,6.30
2016,10,04,03,35,11.00
2016,10,04,03,36,8.40
2016,10,04,03,37,6.10
2016,10,04,03,38,6.70
2016,10,04,03,39,8.60
2016,10,04,03,40,7.70
2016,10,04,03,41,7.30
2016,10,04,03,42,7.70
2016,10,04,03,43,12.30
2016,10,04,03,44,9.40
2016,10,04,03,45,8.60
2016,10,04,03,46,9.00
2016,10,04,03,47,6.60
2016,10,04,03,48,7.50
2016,10,04,03,49,11.10
2016,10,04,03,50,9.40
2016,10,04,03,51,7.40
2016,10,04,03,52,6.80
2016,10,04,03,53,5.60
2016,10,04,03,54,6.30
2016,10,04,03,55,8.80
2016,10,04,03,56,6.20
2016,10,04,03,57,6.90
2016,10,04,03,58,10.80
2016,10,04,03,59,10.60
2016,10,04,04,00,7.20
2016,10,04,04,01,6.70
2016,10,04,04,02,8.20
2016,10,04,04,03,9.40
2016,10,04,04,04,5.10
2016,10,04,04,05,7.20
2016,10,04,04,06,4.60
2016,10,04,04,07,5.60
2016,10,04,04,08,7.10
2016,10,04,04,09,5.90
2016,10,04,04,10,7.60
2016,10,04,04,11,9.50
2016,10,04,04,12,8.20
2016,10,04,04,13,6.70
2016,10,04,04,14,7.20
2016,10,04,04,15,6.60
2016,10,04,04,16,5.80
2016,10,04,04,17,8.60
2016,10,04,04,18,7.20
2016,10,04,04,19,8.00
2016,10,04,04,20,8.40
2016,10,04,04,21,5.90
2016,10,04,04,22,7.50
2016,10,04,04,23,7.60
2016,10,04,04,24,7.70
2016,10,04,04,25,7.30
2016,10,04,04,26,8.70
2016,10,04,04,27,7.80
2016,10,04,04,28,6.70
2016,10,04,04,29,9.20
2016,10,04,04,30,7.20
2016,10,04,04,31,7.60
2016,10,04,04,32,5.50
2016,10,04,04,33,5.20
2016,10,04,04,34,4.30
2016,10,04,04,35,5.40
2016,10,04,04,36,6.30
2016,10,04,04,37,7.10
2016,10,04,04,38,7.20
2016,10,04,04,39,5.40
2016,10,04,04,40,6.30
2016,10,04,04,41,7.80
2016,10,04,04,42,7.70
2016,10,04,04,43,10.00
2016,10,04,04,44,7.10
2016,10,04,04,45,6.30
2016,10,04,04,46,7.80
2016,10,04,04,47,8.10
2016,10,04,04,48,8.10
2016,10,04,04,49,7.10
2016,10,04,04,50,9.10
2016,10,04,04,51,8.70
2016,10,04,04,52,7.30
2016,10,04,04,53,10.30
2016,10,04,04,54,8.20
2016,10,04,04,55,10.70
2016,10,04,04,56,8.30
2016,10,04,04,57,8.60
2016,10,04,04,58,9.00
2016,10,04,04,59,7.40
2016,10,04,05,00,4.40
2016,10,04,05,01,7.00
2016,10,04,05,02,6.60
2016,10,04,05,03,6.50
2016,10,04,05,04,7.10
2016,10,04,05,05,7.40
2016,10,04,05,06,5.90
2016,10,04,05,07,5.80
2016,10,04,05,08,6.10
2016,10,04,05,09,5.40
2016,10,04,05,10,7.10
2016,10,04,05,11,11.00
2016,10,04,05,12,8.90
2016,10,04,05,13,7.80
2016,10,04,05,14,8.60
2016,10,04,05,15,9.40
2016,10,04,05,16,7.80
2016,10,04,05,17,8.70
2016,10,04,05,18,10.50
2016,10,04,05,19,8.10
2016,10,04,05,20,8.80
2016,10,04,05,21,5.90
2016,10,04,05,22,9.00
2016,10,04,05,23,10.70
2016,10,04,05,24,8.50
2016,10,04,05,25,6.80
2016,10,04,05,26,5.40
2016,10,04,05,27,7.80
2016,10,04,05,28,9.80
2016,10,04,05,29,8.00
2016,10,04,05,30,11.80
2016,10,04,05,31,8.70
2016,10,04,05,32,7.70
2016,10,04,05,33,7.50
2016,10,04,05,34,7.00
2016,10,04,05,35,8.50
2016,10,04,05,36,9.10
2016,10,04,05,37,6.10
2016,10,04,05,38,8.40
2016,10,04,05,39,11.00
2016,10,04,05,40,7.90
2016,10,04,05,41,7.10
2016,10,04,05,42,5.20
2016,10,04,05,43,6.50
2016,10,04,05,44,8.50
2016,10,04,05,45,9.30
2016,10,04,05,46,10.00
2016,10,04,05,47,11.40
2016,10,04,05,48,8.90
2016,10,04,05,49,9.00
2016,10,04,05,50,8.30
2016,10,04,05,51,5.90
2016,10,04,05,52,9.50
2016,10,04,05,53,7.00
2016,10,04,05,54,9.00
2016,10,04,05,55,8.30
2016,10,04,05,56,9.60
2016,10,04,05,57,7.30
2016,10,04,05,58,10.00
2016,10,04,05,59,8.30
2016,10,04,06,00,10.20
2016,10,04,06,01,9.00
2016,10,04,06,02,7.40
2016,10,04,06,03,7.10
2016,10,04,06,04,10.30
2016,10,04,06,05,10.40
2016,10,04,06,06,5.90
2016,10,04,06,07,10.20
2016,10,04,06,08,8.10
2016,10,04,06,09,7.90
2016,10,04,06,10,8.20
2016,10,04,06,11,9.20
2016,10,04,06,12,9.40
2016,10,04,06,13,8.80
2016,10,04,06,14,7.40
2016,10,04,06,15,12.40
2016,10,04,06,16,12.00
2016,10,04,06,17,10.30
2016,10,04,06,18,8.10
2016,10,04,06,19,7.90
2016,10,04,06,20,11.20
2016,10,04,06,21,9.40
2016,10,04,06,22,8.20
2016,10,04,06,23,5.70
2016,10,04,06,24,9.90
2016,10,04,06,25,8.60
2016,10,04,06,26,12.70
2016,10,04,06,27,8.60
2016,10,04,06,28,11.80
2016,10,04,06,29,9.80
2016,10,04,06,30,11.60
2016,10,04,06,31,11.30
2016,10,04,06,32,9.00
2016,10,04,06,33,7.00
2016,10,04,06,34,11.20
2016,10,04,06,35,10.70
2016,10,04,06,36,13.50
2016,10,04,06,37,12.10
2016,10,04,06,38,10.40
2016,10,04,06,39,11.90
2016,10,04,06,40,10.50
2016,10,04,06,41,12.10
2016,10,04,06,42,13.10
2016,10,04,06,43,9.40
2016,10,04,06,44,9.60
2016,10,04,06,45,10.30
2016,10,04,06,46,11.00
2016,10,04,06,47,8.20
2016,10,04,06,48,11.00
2016,10,04,06,49,10.20
2016,10,04,06,50,9.50
2016,10,04,06,51,8.00
2016,10,04,06,52,6.30
2016,10,04,06,53,7.30
2016,10,04,06,54,11.00
2016,10,04,06,55,7.90
2016,10,04,06,56,11.30
2016,10,04,06,57,6.70
2016,10,04,06,58,11.70
2016,10,04,06,59,5.70
2016,10,04,07,00,6.90
2016,10,04,07,01,6.80
2016,10,04,07,02,9.70
2016,10,04,07,03,11.10
2016,10,04,07,04,11.30
2016,10,04,07,05,13.40
2016,10,04,07,06,14.00
2016,10,04,07,07,11.70
2016,10,04,07,08,11.90
2016,10,04,07,09,12.10
2016,10,04,07,10,11.30
2016,10,04,07,11,14.90
2016,10,04,07,12,12.40
2016,10,04,07,13,16.20
2016,10,04,07,14,11.40
2016,10,04,07,15,9.40
2016,10,04,07,16,12.80
2016,10,04,07,17,10.00
2016,10,04,07,18,12.00
2016,10,04,07,19,15.30
2016,10,04,07,20,16.10
2016,10,04,07,21,13.50
2016,10,04,07,22,11.00
2016,10,04,07,23,13.80
2016,10,04,07,24,11.10
2016,10,04,07,25,14.60
2016,10,04,07,26,15.20
2016,10,04,07,27,11.00
2016,10,04,07,28,13.70
2016,10,04,07,29,10.70
2016,10,04,07,30,14.40
2016,10,04,07,31,9.20
2016,10,04,07,32,11.70
2016,10,04,07,33,16.80
2016,10,04,07,34,13.90
2016,10,04,07,35,12.10
2016,10,04,07,36,8.60
2016,10,04,07,37,16.40
2016,10,04,07,38,14.40
2016,10,04,07,39,14.80
2016,10,04,07,40,10.10
2016,10,04,07,41,12.30
2016,10,04,07,42,15.10
2016,10,04,07,43,14.40
2016,10,04,07,44,12.60
2016,10,04,07,45,16.70
2016,10,04,07,46,12.30
2016,10,04,07,47,13.10
2016,10,04,07,48,12.20
2016,10,04,07,49,12.60
2016,10,04,07,50,12.00
2016,10,04,07,51,9.80
2016,10,04,07,52,11.60
2016,10,04,07,53,11.30
2016,10,04,07,54,16.40
2016,10,04,07,55,13.10
2016,10,04,07,56,13.90
2016,10,04,07,57,12.50
2016,10,04,07,58,9.40
2016,10,04,07,59,14.40
2016,10,04,08,00,13.80
2016,10,04,08,01,11.60
2016,10,04,08,02,14.30
2016,10,04,08,03,14.40
2016,10,04,08,04,9.20
2016,10,04,08,05,7.20
2016,10,04,08,06,12.60
2016,10,04,08,07,9.10
2016,10,04,08,08,11.80
2016,10,04,08,09,11.30
2016,10,04,08,10,13.50
2016,10,04,08,11,11.30
2016,10,04,08,12,9.80
2016,10,04,08,13,11.70
2016,10,04,08,14,12.00
2016,10,04,08,15,11.20
2016,10,04,08,16,11.80
2016,10,04,08,17,10.40
2016,10,04,08,18,10.50
2016,10,04,08,19,16.90
2016,10,04,08,20,15.10
2016,10,04,08,21,10.50
2016,10,04,08,22,11.70
2016,10,04,08,23,9.40
2016,10,04,08,24,13.60
2016,10,04,08,25,11.90
2016,10,04,08,26,8.40
2016,10,04,08,27,10.90
2016,10,04,08,28,16.50
2016,10,04,08,29,11.40
2016,10,04,08,30,14.60
2016,10,04,08,31,12.40
2016,10,04,08,32,12.60
2016,10,04,08,33,12.00
2016,10,04,08,34,11.20
2016,10,04,08,35,13.20
2016,10,04,08,36,15.80
2016,10,04,08,37,10.90
2016,10,04,08,38,12.10
2016,10,04,08,39,9.00
2016,10,04,08,40,15.60
2016,10,04,08,41,14.00
2016,10,04,08,42,12.80
2016,10,04,08,43,14.00
2016,10,04,08,44,14.90
2016,10,04,08,45,12.90
2016,10,04,08,46,13.10
2016,10,04,08,47,14.00
2016,10,04,08,48,12.30
2016,10,04,08,49,14.30
2016,10,04,08,50,14.40
2016,10,04,08,51,17.60
2016,10,04,08,52,14.90
2016,10,04,08,53,12.40
2016,10,04,08,54,8.70
2016,10,04,08,55,13.70
2016,10,04,08,56,14.80
2016,10,04,08,57,16.90
2016,10,04,08,58,13.90
2016,10,04,08,59,15.70
2016,10,04,09,00,8.20
2016,10,04,09,01,14.70
2016,10,04,09,02,15.50
2016,10,04,09,03,10.80
2016,10,04,09,04,12.10
2016,10,04,09,05,15.70
2016,10,04,09,06,14.60
2016,10,04,09,07,13.10
2016,10,04,09,08,15.50
2016,10,04,09,09,15.70
2016,10,04,09,10,12.90
2016,10,04,09,11,12.00
2016,10,04,09,12,8.80
2016,10,04,09,13,11.50
2016,10,04,09,14,13.20
2016,10,04,09,15,14.30
2016,10,04,09,16,11.60
2016,10,04,09,17,11.00
2016,10,04,09,18,7.20
2016,10,04,09,19,14.50
2016,10,04,09,20,12.70
2016,10,04,09,21,12.70
2016,10,04,09,22,6.90
2016,10,04,09,23,10.80
2016,10,04,09,24,12.70
2016,10,04,09,25,12.80
2016,10,04,09,26,7.10
2016,10,04,09,27,10.60
2016,10,04,09,28,11.60
2016,10,04,09,29,12.60
2016,10,04,09,30,10.60
2016,10,04,09,31,10.70
2016,10,04,09,32,13.60
2016,10,04,09,33,12.80
2016,10,04,09,34,14.60
2016,10,04,09,35,13.00
2016,10,04,09,36,11.00
2016,10,04,09,37,10.00
2016,10,04,09,38,15.00
2016,10,04,09,39,14.30
2016,10,04,09,40,7.90
2016,10,04,09,41,16.90
2016,10,04,09,42,13.90
2016,10,04,09,43,12.60
2016,10,04,09,44,14.90
2016,10,04,09,45,9.50
2016,10,04,09,46,12.10
2016,10,04,09,47,16.20
2016,10,04,09,48,13.40
2016,10,04,09,49,15.90
2016,10,04,09,50,13.20
2016,10,04,09,51,9.70
2016,10,04,09,52,10.40
2016,10,04,09,53,11.70
2016,10,04,09,54,6.80
2016,10,04,09,55,10.10
2016,10,04,09,56,9.70
2016,10,04,09,57,13.70
2016,10,04,09,58,13.30
2016,10,04,09,59,11.00
2016,10,04,10,00,9.30
2016,10,04,10,01,10.60
2016,10,04,10,02,10.50
2016,10,04,10,03,9.00
2016,10,04,10,04,9.10
2016,10,04,10,05,8.20
2016,10,04,10,06,9.30
2016,10,04,10,07,8.00
2016,10,04,10,08,9.50
2016,10,04,10,09,14.00
2016,10,04,10,10,12.10
2016,10,04,10,11,12.80
2016,10,04,10,12,12.70
2016,10,04,10,13,15.00
2016,10,04,10,14,11.80
2016,10,04,10,15,14.90
2016,10,04,10,16,15.90
2016,10,04,10,17,11.70
2016,10,04,10,18,13.70
2016,10,04,10,19,14.50
2016,10,04,10,20,11.90
2016,10,04,10,21,12.30
2016,10,04,10,22,16.70
2016,10,04,10,23,10.30
2016,10,04,10,24,12.60
2016,10,04,10,25,9.70
2016,10,04,10,26,14.30
2016,10,04,10,27,9.80
2016,10,04,10,28,13.70
2016,10,04,10,29,11.10
2016,10,04,10,30,14.40
2016,10,04,10,31,12.20
2016,10,04,10,32,11.40
2016,10,04,10,33,12.50
2016,10,04,10,34,14.30
2016,10,04,10,35,10.50
2016,10,04,10,36,11.50
2016,10,04,10,37,11.10
2016,10,04,10,38,11.50
2016,10,04,10,39,11.00
2016,10,04,10,40,11.20
2016,10,04,10,41,8.90
2016,10,04,10,42,12.50
2016,10,04,10,43,14.40
2016,10,04,10,44,15.10
2016,10,04,10,45,12.60
2016,10,04,10,46,7.90
2016,10,04,10,47,10.70
2016,10,04,10,48,12.90
2016,10,04,10,49,10.40
2016,10,04,10,50,8.70
2016,10,04,10,51,15.40
2016,10,04,10,52,14.90
2016,10,04,10,53,11.60
2016,10,04,10,54,10.50
2016,10,04,10,55,8.10
2016,10,04,10,56,14.90
2016,10,04,10,57,14.00
2016,10,04,10,58,11.80
2016,10,04,10,59,15.30
2016,10,04,11,00,12.40
2016,10,04,11,01,12.00
2016,10,04,11,02,11.10
2016,10,04,11,03,12.30
2016,10,04,11,04,8.40
2016,10,04,11,05,12.20
2016,10,04,11,06,13.90
2016,10,04,11,07,15.60
2016,10,04,11,08,10.50
2016,10,04,11,09,13.00
2016,10,04,11,10,18.60
2016,10,04,11,11,12.10
2016,10,04,11,12,12.00
2016,10,04,11,13,11.80
2016,10,04,11,14,14.30
2016,10,04,11,15,15.20
2016,10,04,11,16,13.50
2016,10,04,11,17,12.30
2016,10,04,11,18,10.00
2016,10,04,11,19,9.70
2016,10,04,11,20,10.20
2016,10,04,11,21,16.90
2016,10,04,11,22,15.70
2016,10,04,11,23,12.30
2016,10,04,11,24,10.40
2016,10,04,11,25,14.50
2016,10,04,11,26,14.50
2016,10,04,11,27,10.90
2016,10,04,11,28,12.90
2016,10,04,11,29,12.90
2016,10,04,11,30,17.90
2016,10,04,11,31,16.70
2016,10,04,11,32,13.30
2016,10,04,11,33,15.80
2016,10,04,11,34,14.10
2016,10,04,11,35,14.20
2016,10,04,11,36,13.00
2016,10,04,11,37,12.10
2016,10,04,11,38,15.60
2016,10,04,11,39,12.80
2016,10,04,11,40,15.10
2016,10,04,11,41,16.60
2016,10,04,11,42,15.30
2016,10,04,11,43,20.10
2016,10,04,11,44,19.10
2016,10,04,11,45,16.90
2016,10,04,11,46,21.90
2016,10,04,11,47,14.60
2016,10,04,11,48,12.00
2016,10,04,11,49,11.00
2016,10,04,11,50,10.30
2016,10,04,11,51,16.20
2016,10,04,11,52,15.70
2016,10,04,11,53,16.60
2016,10,04,11,54,18.90
2016,10,04,11,55,16.50
2016,10,04,11,56,18.50
2016,10,04,11,57,17.50
2016,10,04,11,58,13.80
2016,10,04,11,59,16.10
2016,10,04,12,00,16.40
2016,10,04,12,01,16.60
2016,10,04,12,02,20.90
2016,10,04,12,03,19.10
2016,10,04,12,04,13.30
2016,10,04,12,05,12.90
2016,10,04,12,06,16.50
2016,10,04,12,07,14.90
2016,10,04,12,08,18.50
2016,10,04,12,09,18.90
2016,10,04,12,10,13.50
2016,10,04,12,11,18.20
2016,10,04,12,12,14.30
2016,10,04,12,13,18.30
2016,10,04,12,14,16.40
2016,10,04,12,15,11.90
2016,10,04,12,16,10.80
2016,10,04,12,17,11.30
2016,10,04,12,18,14.80
2016,10,04,12,19,14.30
2016,10,04,12,20,14.00
2016,10,04,12,21,9.70
2016,10,04,12,22,17.40
2016,10,04,12,23,20.40
2016,10,04,12,24,17.50
2016,10,04,12,25,16.20
2016,10,04,12,26,18.40
2016,10,04,12,27,18.10
2016,10,04,12,28,19.30
2016,10,04,12,29,10.20
2016,10,04,12,30,13.70
2016,10,04,12,31,17.30
2016,10,04,12,32,16.20
2016,10,04,12,33,16.30
2016,10,04,12,34,13.40
2016,10,04,12,35,17.10
2016,10,04,12,36,17.60
2016,10,04,12,37,17.20
2016,10,04,12,38,13.70
2016,10,04,12,39,16.50
2016,10,04,12,40,11.90
2016,10,04,12,41,18.20
2016,10,04,12,42,14.80
2016,10,04,12,43,14.20
2016,10,04,12,44,15.70
2016,10,04,12,45,13.90
2016,10,04,12,46,14.20
2016,10,04,12,47,14.40
2016,10,04,12,48,12.00
2016,10,04,12,49,14.00
2016,10,04,12,50,14.90
2016,10,04,12,51,16.00
2016,10,04,12,52,14.30
2016,10,04,12,53,14.20
2016,10,04,12,54,11.00
2016,10,04,12,55,15.00
2016,10,04,12,56,18.90
2016,10,04,12,57,16.00
2016,10,04,12,58,15.40
2016,10,04,12,59,13.00
2016,10,04,13,00,13.00
2016,10,04,13,01,10.60
2016,10,04,13,02,14.40
2016,10,04,13,03,12.00
2016,10,04,13,04,15.10
2016,10,04,13,05,11.70
2016,10,04,13,06,12.60
2016,10,04,13,07,11.20
2016,10,04,13,08,10.80
2016,10,04,13,09,10.40
2016,10,04,13,10,11.50
2016,10,04,13,11,9.50
2016,10,04,13,12,13.00
2016,10,04,13,13,13.20
2016,10,04,13,14,9.70
2016,10,04,13,15,14.80
2016,10,04,13,16,13.20
2016,10,04,13,17,12.00
2016,10,04,13,18,13.60
2016,10,04,13,19,12.90
2016,10,04,13,20,7.30
2016,10,04,13,21,11.90
2016,10,04,13,22,15.40
2016,10,04,13,23,13.70
2016,10,04,13,24,10.70
2016,10,04,13,25,11.40
2016,10,04,13,26,13.00
2016,10,04,13,27,11.30
2016,10,04,13,28,15.00
2016,10,04,13,29,17.30
2016,10,04,13,30,10.40
2016,10,04,13,31,12.70
2016,10,04,13,32,13.70
2016,10,04,13,33,11.30
2016,10,04,13,34,10.30
2016,10,04,13,35,12.70
2016,10,04,13,36,12.80
2016,10,04,13,37,10.40
2016,10,04,13,38,9.40
2016,10,04,13,39,11.10
2016,10,04,13,40,14.50
2016,10,04,13,41,12.60
2016,10,04,13,42,9.80
2016,10,04,13,43,12.40
2016,10,04,13,44,15.10
2016,10,04,13,45,11.50
2016,10,04,13,46,10.30
2016,10,04,13,47,13.30
2016,10,04,13,48,14.70
2016,10,04,13,49,17.30
2016,10,04,13,50,15.10
2016,10,04,13,51,16.20
2016,10,04,13,52,9.60
2016,10,04,13,53,16.60
2016,10,04,13,54,15.90
2016,10,04,13,55,14.30
2016,10,04,13,56,13.30
2016,10,04,13,57,14.00
2016,10,04,13,58,14.20
2016,10,04,13,59,16.00
2016,10,04,14,00,15.20
2016,10,04,14,01,16.90
2016,10,04,14,02,15.30
2016,10,04,14,03,13.60
2016,10,04,14,04,12.50
2016,10,04,14,05,21.80
2016,10,04,14,06,14.10
2016,10,04,14,07,11.80
2016,10,04,14,08,10.20
2016,10,04,14,09,11.30
2016,10,04,14,10,9.60
2016,10,04,14,11,9.60
2016,10,04,14,12,9.60
2016,10,04,14,13,9.60
2016,10,04,14,14,9.60
2016,10,04,14,15,7.20
2016,10,04,14,16,13.20
2016,10,04,14,17,7.20
2016,10,04,14,18,11.90
2016,10,04,14,19,13.40
2016,10,04,14,20,8.70
2016,10,04,14,21,11.70
2016,10,04,14,22,15.90
2016,10,04,14,23,9.40
2016,10,04,14,24,11.00
2016,10,04,14,25,12.80
2016,10,04,14,26,13.50
2016,10,04,14,27,12.60
2016,10,04,14,28,10.20
2016,10,04,14,29,7.40
2016,10,04,14,30,12.80
2016,10,04,14,31,9.40
2016,10,04,14,32,4.50
2016,10,04,14,33,9.20
2016,10,04,14,34,14.10
2016,10,04,14,35,11.20
2016,10,04,14,36,8.10
2016,10,04,14,37,7.50
2016,10,04,14,38,11.50
2016,10,04,14,39,11.00
2016,10,04,14,40,11.80
2016,10,04,14,41,13.20
2016,10,04,14,42,11.20
2016,10,04,14,43,10.20
2016,10,04,14,44,11.20
2016,10,04,14,45,9.70
2016,10,04,14,46,9.40
2016,10,04,14,47,11.00
2016,10,04,14,48,8.10
2016,10,04,14,49,10.40
2016,10,04,14,50,9.00
2016,10,04,14,51,8.90
2016,10,04,14,52,11.00
2016,10,04,14,53,9.80
2016,10,04,14,54,9.10
2016,10,04,14,55,7.20
2016,10,04,14,56,7.70
2016,10,04,14,57,11.10
2016,10,04,14,58,9.80
2016,10,04,14,59,7.90
2016,10,04,15,00,10.30
2016,10,04,15,01,8.00
2016,10,04,15,02,9.40
2016,10,04,15,03,10.30
2016,10,04,15,04,12.00
2016,10,04,15,05,7.80
2016,10,04,15,06,8.80
2016,10,04,15,07,7.70
2016,10,04,15,08,9.90
2016,10,04,15,09,9.30
2016,10,04,15,10,9.50
2016,10,04,15,11,8.40
2016,10,04,15,12,13.40
2016,10,04,15,13,16.60
2016,10,04,15,14,13.70
2016,10,04,15,15,16.80
2016,10,04,15,16,14.10
2016,10,04,15,17,13.50
2016,10,04,15,18,15.20
2016,10,04,15,19,10.10
2016,10,04,15,20,10.30
2016,10,04,15,21,8.80
2016,10,04,15,22,9.00
2016,10,04,15,23,10.20
2016,10,04,15,24,10.90
2016,10,04,15,25,9.60
2016,10,04,15,26,11.60
2016,10,04,15,27,9.80
2016,10,04,15,28,10.20
2016,10,04,15,29,7.10
2016,10,04,15,30,8.60
2016,10,04,15,31,7.80
2016,10,04,15,32,11.80
2016,10,04,15,33,12.20
2016,10,04,15,34,9.40
2016,10,04,15,35,13.00
2016,10,04,15,36,10.70
2016,10,04,15,37,11.80
2016,10,04,15,38,16.20
2016,10,04,15,39,12.70
2016,10,04,15,40,12.80
2016,10,04,15,41,14.60
2016,10,04,15,42,8.60
2016,10,04,15,43,17.00
2016,10,04,15,44,8.60
2016,10,04,15,45,16.10
2016,10,04,15,46,13.00
2016,10,04,15,47,12.40
2016,10,04,15,48,16.00
2016,10,04,15,49,14.30
2016,10,04,15,50,14.50
2016,10,04,15,51,16.20
2016,10,04,15,52,9.20
2016,10,04,15,53,16.70
2016,10,04,15,54,17.10
2016,10,04,15,55,17.90
2016,10,04,15,56,17.50
2016,10,04,15,57,11.50
2016,10,04,15,58,8.50
2016,10,04,15,59,8.00
2016,10,04,16,00,10.00
2016,10,04,16,01,12.70
2016,10,04,16,02,11.00
2016,10,04,16,03,11.90
2016,10,04,16,04,13.80
2016,10,04,16,05,8.70
2016,10,04,16,06,16.20
2016,10,04,16,07,11.00
2016,10,04,16,08,12.00
2016,10,04,16,09,11.60
2016,10,04,16,10,11.60
2016,10,04,16,11,13.60
2016,10,04,16,12,12.90
2016,10,04,16,13,10.70
2016,10,04,16,14,15.30
2016,10,04,16,15,13.40
2016,10,04,16,16,11.00
2016,10,04,16,17,8.60
2016,10,04,16,18,6.70
2016,10,04,16,19,13.00
2016,10,04,16,20,11.40
2016,10,04,16,21,10.50
2016,10,04,16,22,14.20
2016,10,04,16,23,9.60
2016,10,04,16,24,11.20
2016,10,04,16,25,10.00
2016,10,04,16,26,10.30
2016,10,04,16,27,10.40
2016,10,04,16,28,8.40
2016,10,04,16,29,15.90
2016,10,04,16,30,12.70
2016,10,04,16,31,13.30
2016,10,04,16,32,9.90
2016,10,04,16,33,11.30
2016,10,04,16,34,11.00
2016,10,04,16,35,6.10
2016,10,04,16,36,11.10
2016,10,04,16,37,8.60
2016,10,04,16,38,13.00
2016,10,04,16,39,10.10
2016,10,04,16,40,11.90
2016,10,04,16,41,11.90
2016,10,04,16,42,10.50
2016,10,04,16,43,9.20
2016,10,04,16,44,10.80
2016,10,04,16,45,12.60
2016,10,04,16,46,10.00
2016,10,04,16,47,7.80
2016,10,04,16,48,9.00
2016,10,04,16,49,10.40
2016,10,04,16,50,11.60
2016,10,04,16,51,11.30
2016,10,04,16,52,12.00
2016,10,04,16,53,9.70
2016,10,04,16,54,8.90
2016,10,04,16,55,9.60
2016,10,04,16,56,9.20
2016,10,04,16,57,9.20
2016,10,04,16,58,10.00
2016,10,04,16,59,8.30
2016,10,04,17,00,10.60
2016,10,04,17,01,10.50
2016,10,04,17,02,10.70
2016,10,04,17,03,11.30
2016,10,04,17,04,13.50
2016,10,04,17,05,8.90
2016,10,04,17,06,11.20
2016,10,04,17,07,8.30
2016,10,04,17,08,10.40
2016,10,04,17,09,9.10
2016,10,04,17,10,10.90
2016,10,04,17,11,17.60
2016,10,04,17,12,13.30
2016,10,04,17,13,13.30
2016,10,04,17,14,14.30
2016,10,04,17,15,11.50
2016,10,04,17,16,11.70
2016,10,04,17,17,7.50
2016,10,04,17,18,11.30
2016,10,04,17,19,12.90
2016,10,04,17,20,13.00
2016,10,04,17,21,13.30
2016,10,04,17,22,8.10
2016,10,04,17,23,7.20
2016,10,04,17,24,9.50
2016,10,04,17,25,7.30
2016,10,04,17,26,9.60
2016,10,04,17,27,11.10
2016,10,04,17,28,9.90
2016,10,04,17,29,10.10
2016,10,04,17,30,9.40
2016,10,04,17,31,10.00
2016,10,04,17,32,11.10
2016,10,04,17,33,10.30
2016,10,04,17,34,10.00
2016,10,04,17,35,8.50
2016,10,04,17,36,7.50
2016,10,04,17,37,11.00
2016,10,04,17,38,9.30